sat.trackr.live / text

‹ back to catalog

STARLINK-33946

NORAD 64034 · 2025-102N

PAYLOAD ACTIVE UNKNOWN

§ Identity

Operator
Country
US
Launch date
2025-05-16
Launch site
AFWTR
Launch vehicle
Mass (kg)
RCS (m²)

Purposes: comms

External: N2YO · Heavens-Above · Gunter

§ Orbital elements

Epoch: 2026-09-20T22:00:03.000096Z

Period
94.09 min
Inclination
70.0008°
Eccentricity
0.0003307
Mean motion
15.30421932 rev/d
Perigee alt
472.3 km
Apogee alt
476.8 km
Semi-major
6,852.7 km
B*
-8.7720e-4
RAAN
340.0908°
Arg perigee
268.2357°
Mean anomaly
273.8897°
Rev number
577

§ Raw data

STARLINK-339461 64034U 25102N   26263.91670139 -.00025919  00000+0 -87720-3 0  99962 64034  70.0008 340.0908 0003307 268.2357 273.8897 15.30421932  5777

JSON: /api/v1/satellites/64034 · /tle

For live sub-satellite position, see the globe view (requires WebGL).

§ Visibility from observer

Set your observer location to see the next 7 days of passes ≥ 10°. The values pass through the URL so the page stays shareable.

No JS? Fill the form by hand. The geolocation button needs JavaScript.